This is the latest recevied weather packets stored in our database for station/object N5ATR. If no packets are shown the sender has not sent any weather packets the latest 10 day(s).
| Time | Temp. | Humidity | Pressure | Rain* | Wind** | Luminosity | Snow |
|---|---|---|---|---|---|---|---|
| 1788481930 | 25.56° C | 35% | 1020.6 hPa | 0 mm | - | 56 W/m² | - |
| 1788481626 | 25.56° C | 35% | 1020.4 hPa | 0 mm | - | 50 W/m² | - |
| 1788481322 | 25.56° C | 35% | 1020.3 hPa | 0 mm | - | 48 W/m² | - |
| 1788481016 | 26.11° C | 35% | 1020.3 hPa | 0 mm | - | 59 W/m² | - |
| 1788480715 | 26.11° C | 35% | 1020.2 hPa | 0 mm | - | 80 W/m² | - |
| 1788480411 | 26.11° C | 34% | 1020.3 hPa | 0 mm | - | 87 W/m² | - |
| 1788480106 | 26.11° C | 34% | 1020.2 hPa | 0 mm | - | 83 W/m² | - |
| 1788479805 | 26.11° C | 34% | 1020.4 hPa | 0 mm | - | 85 W/m² | - |
| 1788479502 | 26.11° C | 34% | 1020.6 hPa | 0 mm | - | 91 W/m² | - |
| 1788479196 | 26.11° C | 34% | 1020.4 hPa | 0 mm | - | 75 W/m² | - |
| 1788478892 | 26.67° C | 33% | 1019.9 hPa | 0 mm | - | 79 W/m² | - |
| 1788478589 | 28.33° C | 31% | 1020.2 hPa | 0 mm | - | 156 W/m² | - |
| 1788478284 | 27.22° C | 32% | 1020.3 hPa | 0 mm | - | 236 W/m² | - |
| 1788477978 | 26.67° C | 33% | 1020.3 hPa | 0 mm | - | 105 W/m² | - |
| 1788477674 | 26.67° C | 32% | 1020.6 hPa | 0 mm | - | 241 W/m² | - |
| 1788477368 | 26.67° C | 33% | 1020.4 hPa | 0 mm | - | 134 W/m² | - |
| 1788477068 | 27.22° C | 33% | 1020.4 hPa | 0 mm | - | 138 W/m² | - |
| 1788476764 | 26.67° C | 33% | 1020.7 hPa | 0 mm | - | 233 W/m² | - |
| 1788476463 | 26.67° C | 33% | 1020.6 hPa | 0 mm | - | 141 W/m² | - |
| 1788476160 | 26.67° C | 33% | 1020.6 hPa | 0 mm | - | 138 W/m² | - |
| 1788475857 | 27.22° C | 33% | 1020.6 hPa | 0 mm | - | 144 W/m² | - |
| 1788475553 | 27.22° C | 32% | 1020.3 hPa | 0 mm | - | 143 W/m² | - |
| 1788475249 | 27.78° C | 32% | 1020.6 hPa | 0 mm | - | 156 W/m² | - |
| 1788474948 | 27.78° C | 32% | 1020.7 hPa | 0 mm | - | 305 W/m² | - |
| 1788474647 | 28.33° C | 31% | 1020.8 hPa | 0 mm | - | 220 W/m² | - |
* Rain latest hour (hover to see other rain measurements)
** Current wind speed in m/s (hover to see current wind gust speed)